{"data":{"norad_id":67006,"epoch":"2026-09-20T11:48:47.050272Z","epoch_age_seconds":81623,"freshness":"FRESH","line1":"1 67006U 25293D   26263.49221123  .00003231  00000+0  27830-3 0  9994","line2":"2 67006  70.0015 323.4412 0003527 268.8157  91.2598 14.98347319 44064","mean_motion":14.98347319,"eccentricity":0.0003527,"inclination_deg":70.0015,"raan_deg":323.4412,"arg_perigee_deg":268.8157,"mean_anomaly_deg":91.2598,"bstar":0.0002783,"rev_number":4406,"period_min":96.105888250333,"perigee_km":569.55101973839,"apogee_km":574.45364802451,"semimajor_km":6950.1393338814,"source":"CELESTRAK","updated_at":"2026-09-21T09:00:36.068729Z"}}